Location: Tabor
(49.4170°N, 14.6670°E)
Time: 09:28:40
(UTC+02:00)

ISS - Pass Details

Date: 18 May 2021
Orbit: 417 x 422 km, 51.6° (Epoch: 13 June)

Event Time Altitude Azimuth Distance (km) Brightness Sun altitude
Rises 21:16:25 0° 231° (SW) 2,353 0.2 -5.3°
Reaches altitude 10° 21:18:32 10° 225° (SW) 1,493 -0.9 -5.5°
Maximum altitude 21:21:46 46° 151° (SSE) 568 -3.5 -5.9°
Drops below altitude 10° 21:25:01 10° 77° (ENE) 1,503 -1.3 -6.3°
Sets 21:27:10 0° 71° (ENE) 2,371 -0.2 -6.6°
